[[{"header":{"parameterUnit":"m.s-1","parameterCategory":1,"la1":30.2991,"la2":30.254,"lo1":-89.0895,"lo2":-89.0444,"dy":0.0017,"dx":0.0017,"nx":28,"ny":28,"refTime":"2024-04-16T03:00:00:Z","depth":0,"parameterNumber":2,"parameterNumberName":"U-component_of_WINDS"},"data":[0,0,0,0,0,0,0,0,0,0,0,0,0,0,0,0,0,0,0,0,0,0,0,0,0,0,0,0,0,0,0,0,0,0,0,0,0,0,0,0,0,0,0,0,0,0,0,0,0,0,0,0,0,0,0,0,0,0,-3.351,-3.3511,0,-3.3554,-3.3554,-3.3555,-3.3524,-3.3523,-3.3521,-3.352,-3.3565,-3.3568,-3.357,0,0,0,0,0,0,0,0,0,0,0,0,0,-3.3402,-3.3404,-3.351,-3.3511,-3.3512,-3.3554,-3.3554,-3.3555,-3.3524,-3.3523,-3.3521,-3.3519,-3.3564,-3.3567,-3.357,0,0,0,0,0,0,0,0,0,0,0,0,0,-3.3448,-3.3405,-3.351,-3.3501,-3.3501,-3.3554,-3.3554,-3.3555,-3.3525,-3.3523,-3.3521,-3.3519,-3.3564,-3.3567,-3.3571,-3.3635,0,0,-3.3582,-3.3584,0,0,0,0,0,0,0,0,-3.3445,-3.3452,-3.3502,-3.3502,-3.3502,-3.3531,-3.3533,-3.3582,-3.3525,-3.3516,-3.352,-3.3518,-3.3556,-3.356,-3.3573,-3.3637,-3.3639,-3.3583,-3.3585,-3.3586,-3.3587,0,0,0,0,0,0,0,-3.3442,-3.345,-3.3528,-3.3503,-3.3503,-3.3496,-3.35,-3.3542,-3.3547,-3.3516,-3.3514,-3.352,-3.3555,-3.3569,-3.3574,-3.364,-3.3582,-3.3586,-3.3588,-3.3589,-3.3759,-3.3761,0,0,0,0,0,0,-3.344,-3.3447,-3.3526,-3.3529,-3.3468,-3.3499,-3.3504,-3.3524,-3.3546,-3.3548,-3.3521,-3.3518,-3.3564,-3.3569,-3.3575,-3.3651,-3.3586,-3.359,-3.3592,-3.3757,-3.3759,-3.3762,0,0,0,0,0,0,-3.3438,-3.3447,-3.3524,-3.3488,-3.3497,-3.3503,-3.3526,-3.3526,-3.354,-3.355,-3.3551,-3.3535,-3.3562,-3.357,-3.362,-3.3652,-3.3592,-3.3595,-3.3754,-3.3758,-3.3761,-3.3803,0,0,0,0,0,0,-3.3435,-3.3446,-3.347,-3.3488,-3.3499,-3.3569,-3.3528,-3.3528,-3.3546,-3.3542,-3.3563,-3.3564,-3.3561,-3.3615,-3.3624,-3.3656,-3.3598,-3.3751,-3.3756,-3.376,-3.3799,-3.3807,-3.3815,0,0,0,0,0,-3.3431,-3.3481,-3.3472,-3.3481,-3.3529,-3.357,-3.3576,-3.3572,-3.3549,-3.3573,-3.358,-3.3563,-3.3648,-3.362,-3.363,-3.3664,-3.3749,-3.3754,-3.3759,-3.3795,-3.3806,-3.3815,0,0,0,0,0,0,-3.3466,-3.3483,-3.3473,-3.353,-3.3549,-3.3565,-3.3595,-3.3584,-3.3609,-3.3605,-3.3599,-3.3604,-3.3656,-3.3666,-3.3635,-3.3727,-3.3695,-3.3702,-3.3718,-3.3729,-3.3737,-3.3732,-3.3601,0,0,0,0,0,-3.3481,-3.3513,-3.3526,-3.3575,-3.3585,-3.3589,-3.3607,-3.3602,-3.3621,-3.3629,-3.364,-3.3659,-3.369,-3.371,-3.3739,-3.3801,-3.3805,-3.3829,-3.3837,-3.3844,-3.3849,-3.3882,-3.3893,-3.3779,-3.3779,-3.3779,0,0,-3.3511,-3.3524,-3.3545,-3.3583,-3.3597,-3.363,-3.3596,-3.3632,-3.3657,-3.3635,-3.3682,-3.3691,-3.3713,-3.3769,-3.3794,-3.3778,-3.3882,-3.385,-3.3855,-3.3858,-3.3889,-3.3899,-3.3909,-3.3782,-3.3781,-3.3781,0,0,-3.3583,-3.3597,-3.3639,-3.3654,-3.3675,-3.3677,-3.3688,-3.3706,-3.3711,-3.3759,-3.3743,-3.3772,-3.3826,-3.3841,-3.3857,-3.3936,-3.3921,-3.3946,-3.3987,-3.4019,-3.4028,-3.4036,-3.4063,-3.4072,-3.3952,-3.3952,-3.3952,0,-3.3617,-3.3666,-3.3662,-3.37,-3.3717,-3.3699,-3.3741,-3.3756,-3.3786,-3.3799,-3.3781,-3.3847,-3.3861,-3.392,-3.3939,-3.3953,-3.3964,-3.3942,-3.4027,-3.4035,-3.4042,-3.4068,-3.4078,-3.3955,-3.3955,-3.3954,-3.3954,0,-3.3707,-3.3742,-3.3773,-3.3802,-3.3824,-3.3864,-3.3865,-3.3888,-3.3882,-3.3886,-3.3935,-3.3951,-3.3983,-3.3997,-3.3992,-3.4056,-3.4045,-3.4028,-3.3994,-3.4056,-3.4079,-3.4089,-3.3959,-3.3958,-3.3957,-3.3956,0,0,-3.38,-3.3827,-3.3839,-3.3851,-3.3875,-3.3901,-3.3941,-3.3972,-3.399,-3.4013,-3.4045,-3.4092,-3.4076,-3.4093,-3.409,-3.4118,-3.4178,-3.4097,-3.4097,-3.411,-3.4249,-3.426,-3.4272,-3.417,-3.4172,-3.4174,-3.4246,0,-3.3871,-3.3939,-3.3937,-3.4001,-3.4032,-3.4017,-3.4051,-3.407,-3.4076,-3.4104,-3.411,-3.4143,-3.412,-3.413,-3.4157,-3.4165,-3.4206,-3.416,-3.42,-3.4201,-3.4192,-3.4284,-3.4296,-3.4364,-3.4256,-3.4257,-3.4259,0,-3.3963,-3.3988,-3.4054,-3.4073,-3.4086,-3.4117,-3.4145,-3.4172,-3.4193,-3.4195,-3.4215,-3.4208,-3.4249,-3.4217,-3.4272,-3.4241,-3.4258,-3.4265,-3.4267,-3.4268,-3.4232,-3.4286,-3.4386,-3.4395,-3.4274,-3.4272,-3.4271,0,-3.4022,-3.4072,-3.4118,-3.413,-3.4153,-3.4175,-3.4186,-3.4205,-3.4224,-3.4249,-3.4261,-3.4291,-3.4307,-3.4331,-3.4332,-3.4309,-3.4388,-3.4356,-3.439,-3.439,-3.4405,-3.4404,-3.4507,-3.442,-3.442,-3.442,-3.442,0,-3.41,-3.4141,-3.4145,-3.4173,-3.4218,-3.4216,-3.4262,-3.4271,-3.4288,-3.4318,-3.4307,-3.4336,-3.4336,-3.4366,-3.4367,-3.4412,-3.442,-3.4423,-3.4422,-3.4423,-3.4422,-3.4431,-3.4426,-3.4423,-3.4422,-3.4421,-3.4421,0,-3.4172,-3.4176,-3.4225,-3.4244,-3.4249,-3.4282,-3.4298,-3.4325,-3.4331,-3.4369,-3.4378,-3.4387,-3.442,-3.4425,-3.4465,-3.4465,-3.452,-3.4515,-3.4512,-3.451,-3.4544,-3.454,-3.4654,-3.4669,-3.4575,-3.4576,-3.4577,0,-3.422,-3.4251,-3.4273,-3.4292,-3.4304,-3.4335,-3.4354,-3.4354,-3.4375,-3.4401,-3.4425,-3.4458,-3.4484,-3.4539,-3.4549,-3.458,-3.4575,-3.4613,-3.4579,-3.4578,-3.4573,-3.457,-3.4573,-3.4619,-3.462,-3.4621,-3.4621,0,-3.4305,-3.4306,-3.4333,-3.4362,-3.4385,-3.4408,-3.4429,-3.4445,-3.4448,-3.4472,-3.4506,-3.4526,-3.4567,-3.46,-3.463,-3.4642,-3.4632,-3.4632,-3.4641,-3.4641,-3.4637,-3.4637,-3.4527,-3.4629,-3.4628,-3.4628,-3.4627,-3.4627,-3.4365,-3.4392,-3.4411,-3.4442,-3.4459,-3.4479,-3.4505,-3.4514,-3.4543,-3.4575,-3.4574,-3.4612,-3.4633,-3.4672,-3.4687,-3.4716,-3.4704,-3.4718,-3.4721,-3.4723,-3.4726,-3.4634,-3.4722,-3.4722,-3.4722,-3.4722,-3.4722,0,-3.4448,-3.446,-3.4489,-3.4519,-3.4543,-3.4533,-3.4556,-3.4577,-3.461,-3.4631,-3.4657,-3.4696,-3.4728,-3.4742,-3.4773,-3.4794,-3.4791,-3.4802,-3.48,-3.4802,-3.4736,-3.4724,-3.4805,-3.4805,-3.4805,-3.4805,-3.4805,-3.4805,-3.4493,-3.4537,-3.4541,-3.4593,-3.4605,-3.4641,-3.4655,-3.4674,-3.469,-3.4735,-3.4761,-3.477,-3.4787,-3.482,-3.4849,-3.4853,-3.4864,-3.4877,-3.4878,-3.4816,-3.4807,-3.4799,-3.4787,-3.488,-3.488,-3.4942,-3.4942,-3.4943]},{"header":{"parameterUnit":"m.s-1","parameterCategory":1,"la1":30.2991,"la2":30.254,"lo1":-89.0895,"lo2":-89.0444,"dy":0.0017,"dx":0.0017,"nx":28,"ny":28,"refTime":"2024-04-16T03:00:00:Z","depth":0,"parameterNumber":3,"parameterNumberName":"V-component_of_WINDS"},"data":[0,0,0,0,0,0,0,0,0,0,0,0,0,0,0,0,0,0,0,0,0,0,0,0,0,0,0,0,0,0,0,0,0,0,0,0,0,0,0,0,0,0,0,0,0,0,0,0,0,0,0,0,0,0,0,0,0,0,2.1535,2.1536,0,2.1612,2.1613,2.1614,2.1605,2.1604,2.1603,2.1602,2.1679,2.1682,2.1686,0,0,0,0,0,0,0,0,0,0,0,0,0,2.1381,2.1384,2.1535,2.1536,2.1537,2.1612,2.1613,2.1614,2.1606,2.1604,2.1603,2.1601,2.1678,2.1682,2.1686,0,0,0,0,0,0,0,0,0,0,0,0,0,2.1452,2.1385,2.1535,2.1542,2.1543,2.1612,2.1613,2.1614,2.1606,2.1604,2.1602,2.16,2.1677,2.1682,2.1686,2.1752,0,0,2.1701,2.1703,0,0,0,0,0,0,0,0,2.1448,2.1457,2.154,2.1541,2.1543,2.1597,2.1587,2.166,2.1606,2.1582,2.1602,2.16,2.1653,2.166,2.1678,2.1756,2.1759,2.1702,2.1704,2.1706,2.1708,0,0,0,0,0,0,0,2.1443,2.1454,2.1565,2.1541,2.1543,2.1541,2.1549,2.1601,2.1627,2.1584,2.1584,2.1593,2.1654,2.1674,2.168,2.1761,2.1701,2.1706,2.1709,2.171,2.1898,2.1901,0,0,0,0,0,0,2.1436,2.145,2.1563,2.1568,2.149,2.1545,2.1554,2.1582,2.1626,2.1631,2.1594,2.1592,2.1667,2.1675,2.1683,2.1765,2.1706,2.1711,2.1714,2.1896,2.1899,2.1901,0,0,0,0,0,0,2.1433,2.1446,2.156,2.1509,2.1523,2.155,2.1581,2.1584,2.1604,2.1634,2.1639,2.161,2.1665,2.1676,2.1736,2.1767,2.1713,2.1717,2.1894,2.1897,2.19,2.1928,0,0,0,0,0,0,2.1429,2.1445,2.1471,2.1509,2.1526,2.1611,2.1582,2.1587,2.1612,2.161,2.165,2.1655,2.1665,2.1729,2.1741,2.1773,2.1721,2.1891,2.1895,2.1899,2.1924,2.1932,2.1938,0,0,0,0,0,2.1423,2.1475,2.1472,2.1485,2.1558,2.1613,2.1623,2.1633,2.1615,2.1641,2.1661,2.1653,2.1762,2.1735,2.1748,2.1782,2.1889,2.1894,2.1899,2.1921,2.193,2.1938,0,0,0,0,0,0,2.1438,2.148,2.1477,2.1543,2.1575,2.1612,2.1644,2.1642,2.168,2.1676,2.1688,2.1697,2.1757,2.1776,2.1745,2.185,2.1823,2.1831,2.1836,2.1844,2.1851,2.1846,2.1725,0,0,0,0,0,2.1449,2.149,2.1524,2.1579,2.1595,2.1617,2.1642,2.1647,2.1681,2.1694,2.1718,2.175,2.1792,2.1819,2.1859,2.1927,2.1936,2.1957,2.1964,2.1969,2.1976,2.2015,2.2025,2.1917,2.1917,2.1917,0,0,2.1471,2.15,2.1525,2.1583,2.1608,2.1651,2.1629,2.1674,2.1707,2.1701,2.1759,2.1778,2.1815,2.188,2.191,2.1897,2.2008,2.1975,2.1979,2.1983,2.2021,2.2031,2.204,2.192,2.192,2.1919,0,0,2.1535,2.156,2.1609,2.1636,2.1675,2.169,2.1701,2.1739,2.1752,2.1811,2.1808,2.1846,2.1917,2.1944,2.1967,2.2044,2.2039,2.2056,2.2092,2.213,2.2139,2.2146,2.2175,2.2185,2.2063,2.2063,2.2063,0,2.1559,2.1624,2.1635,2.1682,2.1708,2.1706,2.1756,2.1781,2.1831,2.1849,2.1834,2.1925,2.1949,2.2021,2.204,2.2058,2.2073,2.2052,2.2137,2.2144,2.2152,2.2179,2.219,2.2065,2.2064,2.2064,2.2064,0,2.1651,2.1697,2.1732,2.1781,2.1811,2.186,2.1878,2.1907,2.1911,2.1927,2.1988,2.2018,2.2065,2.2082,2.2085,2.2155,2.2146,2.2134,2.2108,2.2164,2.219,2.22,2.2067,2.2067,2.2066,2.2066,0,0,2.1726,2.1782,2.1795,2.1819,2.1862,2.1898,2.1946,2.1993,2.2018,2.2053,2.2095,2.2156,2.2146,2.2172,2.2178,2.2212,2.2272,2.2196,2.2197,2.221,2.2353,2.2363,2.2375,2.2269,2.2271,2.2273,2.235,0,2.1796,2.1883,2.1895,2.1972,2.2015,2.2014,2.2056,2.2088,2.2105,2.2144,2.2162,2.2206,2.2188,2.2204,2.2237,2.2258,2.2301,2.2252,2.2309,2.2311,2.2301,2.2388,2.2398,2.247,2.236,2.2362,2.2363,0,2.1888,2.1927,2.2009,2.2048,2.2067,2.2105,2.215,2.2186,2.2223,2.2233,2.2263,2.2266,2.2317,2.2289,2.236,2.2327,2.2351,2.2364,2.2367,2.2374,2.2341,2.2398,2.2493,2.2504,2.2379,2.2378,2.2377,0,2.1936,2.2009,2.2068,2.2087,2.2135,2.2162,2.2183,2.2218,2.2245,2.2284,2.2303,2.2346,2.2371,2.2405,2.242,2.2397,2.2491,2.2463,2.2501,2.2501,2.2522,2.252,2.2623,2.2535,2.2535,2.2535,2.2535,0,2.2013,2.2064,2.209,2.2127,2.2184,2.2197,2.2253,2.2273,2.2304,2.2345,2.2346,2.2384,2.2401,2.2442,2.2453,2.2512,2.2522,2.2532,2.2535,2.2533,2.2532,2.255,2.2546,2.2538,2.2537,2.2537,2.2536,0,2.2077,2.2097,2.2161,2.2201,2.2213,2.2253,2.2288,2.2323,2.234,2.2391,2.2404,2.2431,2.2479,2.2497,2.2555,2.2564,2.2632,2.263,2.262,2.2621,2.2659,2.2656,2.2777,2.2795,2.2694,2.2695,2.2696,0,2.2126,2.2165,2.2209,2.2237,2.2259,2.2304,2.2332,2.2347,2.2377,2.2423,2.2453,2.2502,2.2541,2.2618,2.2643,2.2688,2.2688,2.2728,2.2695,2.2692,2.2691,2.2689,2.2693,2.2734,2.2735,2.2736,2.2736,0,2.221,2.2218,2.226,2.2306,2.234,2.2377,2.2412,2.2435,2.2455,2.2489,2.2539,2.257,2.263,2.2679,2.2726,2.2747,2.2746,2.2747,2.2758,2.2757,2.2751,2.2756,2.2638,2.2744,2.2743,2.2743,2.2742,2.2742,2.2269,2.2304,2.2342,2.2389,2.2417,2.2451,2.2487,2.2509,2.2551,2.2602,2.2608,2.2662,2.2699,2.2762,2.2786,2.2829,2.2818,2.2834,2.2839,2.2843,2.2847,2.2743,2.2837,2.2837,2.2837,2.2836,2.2836,0,2.2355,2.2379,2.2422,2.2473,2.251,2.2506,2.2545,2.2577,2.2625,2.2659,2.2699,2.2757,2.2804,2.2833,2.2881,2.2909,2.291,2.2922,2.292,2.2926,2.2853,2.2839,2.292,2.292,2.292,2.292,2.292,2.292,2.2404,2.2464,2.2477,2.2552,2.2576,2.263,2.2653,2.2685,2.2713,2.2778,2.2818,2.2836,2.2869,2.292,2.2963,2.297,2.2988,2.3001,2.3008,2.2939,2.293,2.2922,2.2909,2.3005,2.3005,2.3078,2.3078,2.3079]}]]